Time,TemperatureF,DewpointF,PressureIn,WindDirection,WindDirectionDegrees,WindSpeedMPH,WindSpeedGustMPH,Humidity,HourlyPrecipIn,Conditions,Clouds,dailyrainin,SoftwareType,DateUTC
2013-07-11 00:02:00,76.8,73.0,29.83,NW,316,2.0,3.0,89,0.00,,,0.06,weatherlink.com 1.10,2013-07-11 04:02:00,
2013-07-11 00:17:00,76.4,73.0,29.83,NNW,330,1.0,5.0,89,0.00,,,0.06,weatherlink.com 1.10,2013-07-11 04:17:00,
2013-07-11 00:32:00,76.2,73.0,29.82,NNW,330,1.0,1.0,89,0.00,,,0.06,weatherlink.com 1.10,2013-07-11 04:32:00,
2013-07-11 00:47:00,75.6,73.0,29.81,SE,143,1.0,3.0,91,0.00,,,0.06,weatherlink.com 1.10,2013-07-11 04:47:00,
2013-07-11 01:02:00,75.0,73.0,29.81,SSE,152,0.0,1.0,92,0.00,,,0.06,weatherlink.com 1.10,2013-07-11 05:02:00,
2013-07-11 01:17:00,74.6,73.0,29.81,SSE,152,0.0,1.0,93,0.00,,,0.06,weatherlink.com 1.10,2013-07-11 05:17:00,
2013-07-11 01:32:00,74.6,73.0,29.81,SSW,205,0.0,0.0,94,0.00,,,0.06,weatherlink.com 1.10,2013-07-11 05:32:00,
2013-07-11 01:47:00,74.2,72.0,29.82,South,179,2.0,4.0,94,0.00,,,0.06,weatherlink.com 1.10,2013-07-11 05:47:00,
2013-07-11 02:02:00,74.9,73.0,29.82,SSE,152,1.0,5.0,92,0.00,,,0.00,weatherlink.com 1.10,2013-07-11 06:02:00,
2013-07-11 02:17:00,75.0,72.0,29.82,South,177,1.0,5.0,90,0.00,,,0.00,weatherlink.com 1.10,2013-07-11 06:17:00,
2013-07-11 02:32:00,74.9,71.0,29.82,WSW,238,3.0,5.0,88,0.00,,,0.00,weatherlink.com 1.10,2013-07-11 06:32:00,
2013-07-11 02:47:00,74.8,71.0,29.82,South,181,1.0,5.0,88,0.00,,,0.00,weatherlink.com 1.10,2013-07-11 06:47:00,
2013-07-11 03:02:00,74.8,71.0,29.82,SSW,200,2.0,5.0,87,0.00,,,0.00,weatherlink.com 1.10,2013-07-11 07:02:00,
2013-07-11 03:17:00,74.6,71.0,29.83,SSW,205,0.0,4.0,88,0.00,,,0.00,weatherlink.com 1.10,2013-07-11 07:17:00,
2013-07-11 03:32:00,74.4,71.0,29.82,SSE,166,0.0,3.0,89,0.00,,,0.00,weatherlink.com 1.10,2013-07-11 07:32:00,
2013-07-11 03:47:00,74.1,71.0,29.82,SSE,150,0.0,2.0,90,0.00,,,0.00,weatherlink.com 1.10,2013-07-11 07:47:00,
2013-07-11 04:02:00,73.5,71.0,29.82,West,274,0.0,2.0,91,0.00,,,0.00,weatherlink.com 1.10,2013-07-11 08:02:00,
2013-07-11 04:17:00,73.2,71.0,29.82,SE,132,0.0,1.0,91,0.00,,,0.00,weatherlink.com 1.10,2013-07-11 08:17:00,
2013-07-11 04:32:00,73.3,71.0,29.82,WNW,301,2.0,3.0,91,0.00,,,0.00,weatherlink.com 1.10,2013-07-11 08:32:00,
2013-07-11 04:47:00,73.5,71.0,29.82,West,271,0.0,3.0,91,0.00,,,0.00,weatherlink.com 1.10,2013-07-11 08:47:00,
2013-07-11 05:02:00,73.3,71.0,29.82,NNW,338,2.0,4.0,92,0.00,,,0.00,weatherlink.com 1.10,2013-07-11 09:02:00,
2013-07-11 05:17:00,73.3,71.0,29.82,WNW,302,1.0,5.0,92,0.00,,,0.00,weatherlink.com 1.10,2013-07-11 09:17:00,
2013-07-11 05:32:00,73.6,71.0,29.83,NNW,330,3.0,7.0,92,0.00,,,0.00,weatherlink.com 1.10,2013-07-11 09:32:00,
2013-07-11 05:47:00,73.5,71.0,29.83,WNW,291,1.0,6.0,91,0.00,,,0.00,weatherlink.com 1.10,2013-07-11 09:47:00,
2013-07-11 06:02:00,73.1,70.0,29.83,WNW,294,1.0,7.0,91,0.00,,,0.00,weatherlink.com 1.10,2013-07-11 10:02:00,
2013-07-11 06:17:00,72.7,70.0,29.84,NW,304,2.0,7.0,91,0.00,,,0.00,weatherlink.com 1.10,2013-07-11 10:17:00,
2013-07-11 06:32:00,72.6,70.0,29.85,West,271,0.0,6.0,91,0.00,,,0.00,weatherlink.com 1.10,2013-07-11 10:32:00,
2013-07-11 06:48:00,72.5,70.0,29.86,WSW,239,0.0,2.0,91,0.00,,,0.00,weatherlink.com 1.10,2013-07-11 10:48:00,
2013-07-11 07:03:00,72.4,70.0,29.86,West,277,1.0,2.0,91,0.00,,,0.00,weatherlink.com 1.10,2013-07-11 11:03:00,
2013-07-11 07:18:00,72.3,70.0,29.87,NW,305,0.0,3.0,92,0.00,,,0.00,weatherlink.com 1.10,2013-07-11 11:18:00,
2013-07-11 07:33:00,72.3,70.0,29.87,WNW,290,0.0,6.0,92,0.00,,,0.00,weatherlink.com 1.10,2013-07-11 11:33:00,
2013-07-11 07:48:00,72.3,70.0,29.87,WNW,297,0.0,2.0,92,0.00,,,0.00,weatherlink.com 1.10,2013-07-11 11:48:00,
2013-07-11 08:03:00,72.4,70.0,29.87,WNW,284,0.0,3.0,92,0.00,,,0.00,weatherlink.com 1.10,2013-07-11 12:03:00,
2013-07-11 08:18:00,72.5,70.0,29.88,West,280,0.0,4.0,91,0.00,,,0.00,weatherlink.com 1.10,2013-07-11 12:18:00,
2013-07-11 08:33:00,72.5,70.0,29.89,NNW,339,1.0,2.0,90,0.00,,,0.00,weatherlink.com 1.10,2013-07-11 12:33:00,
2013-07-11 08:48:00,72.5,70.0,29.89,WNW,295,2.0,3.0,90,0.00,,,0.00,weatherlink.com 1.10,2013-07-11 12:48:00,
2013-07-11 09:03:00,72.7,69.0,29.89,NNW,340,0.0,7.0,89,0.00,,,0.00,weatherlink.com 1.10,2013-07-11 13:03:00,
2013-07-11 09:33:00,73.3,69.0,29.90,WNW,283,3.0,9.0,85,0.00,,,0.00,weatherlink.com 1.10,2013-07-11 13:33:00,
2013-07-11 09:48:00,73.5,68.0,29.91,NW,307,3.0,9.0,83,0.00,,,0.00,weatherlink.com 1.10,2013-07-11 13:48:00,
2013-07-11 10:03:00,73.7,68.0,29.91,North,358,1.0,8.0,81,0.00,,,0.00,weatherlink.com 1.10,2013-07-11 14:03:00,
2013-07-11 10:48:00,76.6,70.0,29.90,NE,45,1.0,6.0,79,0.00,,,0.00,weatherlink.com 1.10,2013-07-11 14:48:00,
2013-07-11 11:03:00,77.4,68.0,29.90,NW,311,5.0,8.0,73,0.00,,,0.00,weatherlink.com 1.10,2013-07-11 15:03:00,
2013-07-11 11:18:00,77.9,69.0,29.90,NNE,12,1.0,6.0,73,0.00,,,0.00,weatherlink.com 1.10,2013-07-11 15:18:00,
2013-07-11 11:33:00,78.5,69.0,29.89,NNW,331,2.0,5.0,72,0.00,,,0.00,weatherlink.com 1.10,2013-07-11 15:33:00,
2013-07-11 11:48:00,78.8,71.0,29.89,NNW,347,0.0,2.0,76,0.00,,,0.00,weatherlink.com 1.10,2013-07-11 15:48:00,
2013-07-11 12:03:00,78.8,69.0,29.90,NW,321,1.0,6.0,73,0.00,,,0.00,weatherlink.com 1.10,2013-07-11 16:03:00,
2013-07-11 12:18:00,79.3,70.0,29.90,NNW,341,1.0,6.0,74,0.00,,,0.00,weatherlink.com 1.10,2013-07-11 16:18:00,
2013-07-11 12:33:00,80.2,70.0,29.89,NW,321,2.0,6.0,70,0.00,,,0.00,weatherlink.com 1.10,2013-07-11 16:33:00,
2013-07-11 12:48:00,81.8,70.0,29.89,NNE,17,2.0,5.0,68,0.00,,,0.00,weatherlink.com 1.10,2013-07-11 16:48:00,
2013-07-11 13:18:00,82.1,71.0,29.89,NNW,329,2.0,4.0,68,0.00,,,0.00,weatherlink.com 1.10,2013-07-11 17:18:00,
2013-07-11 13:48:00,82.8,71.0,29.88,NNE,12,1.0,6.0,68,0.00,,,0.00,weatherlink.com 1.10,2013-07-11 17:48:00,
2013-07-11 14:03:00,82.2,70.0,29.88,NW,314,2.0,5.0,66,0.00,,,0.00,weatherlink.com 1.10,2013-07-11 18:03:00,
2013-07-11 14:18:00,81.9,71.0,29.88,NW,326,2.0,4.0,69,0.00,,,0.00,weatherlink.com 1.10,2013-07-11 18:18:00,
2013-07-11 14:33:00,82.6,71.0,29.88,NW,325,2.0,4.0,67,0.00,,,0.00,weatherlink.com 1.10,2013-07-11 18:33:00,
2013-07-11 14:48:00,82.4,69.0,29.87,NW,323,3.0,6.0,65,0.00,,,0.00,weatherlink.com 1.10,2013-07-11 18:48:00,
2013-07-11 15:03:00,84.1,71.0,29.87,NNW,329,4.0,4.0,65,0.00,,,0.00,weatherlink.com 1.10,2013-07-11 19:03:00,
2013-07-11 15:18:00,83.4,70.0,29.87,NNW,339,0.0,5.0,64,0.00,,,0.00,weatherlink.com 1.10,2013-07-11 19:18:00,
2013-07-11 15:33:00,82.6,70.0,29.86,NNW,333,1.0,5.0,65,0.00,,,0.00,weatherlink.com 1.10,2013-07-11 19:33:00,
2013-07-11 16:18:00,82.8,71.0,29.86,NNW,338,3.0,4.0,67,0.00,,,0.00,weatherlink.com 1.10,2013-07-11 20:18:00,
2013-07-11 16:33:00,83.0,69.0,29.86,NW,318,3.0,7.0,63,0.00,,,0.00,weatherlink.com 1.10,2013-07-11 20:33:00,
2013-07-11 16:48:00,83.4,69.0,29.86,NW,318,0.0,4.0,62,0.00,,,0.00,weatherlink.com 1.10,2013-07-11 20:48:00,
2013-07-11 17:03:00,83.4,68.0,29.86,WNW,283,1.0,3.0,61,0.00,,,0.00,weatherlink.com 1.10,2013-07-11 21:03:00,
2013-07-11 17:18:00,82.7,70.0,29.86,NW,317,2.0,4.0,65,0.00,,,0.00,weatherlink.com 1.10,2013-07-11 21:18:00,
2013-07-11 18:04:00,81.2,73.0,29.86,NW,308,0.0,3.0,75,0.00,,,0.00,weatherlink.com 1.10,2013-07-11 22:04:00,
2013-07-11 18:19:00,79.9,74.0,29.87,NW,308,0.0,1.0,81,0.00,,,0.00,weatherlink.com 1.10,2013-07-11 22:19:00,
2013-07-11 18:34:00,77.8,73.0,29.87,NNW,340,2.0,3.0,84,0.00,,,0.00,weatherlink.com 1.10,2013-07-11 22:34:00,
2013-07-11 18:49:00,77.5,73.0,29.88,NNW,331,0.0,1.0,85,0.00,,,0.00,weatherlink.com 1.10,2013-07-11 22:49:00,
2013-07-11 19:04:00,76.7,73.0,29.89,NNW,331,0.0,1.0,87,0.00,,,0.00,weatherlink.com 1.10,2013-07-11 23:04:00,
2013-07-11 19:19:00,76.1,72.0,29.89,NNW,332,0.0,1.0,88,0.00,,,0.00,weatherlink.com 1.10,2013-07-11 23:19:00,
2013-07-11 19:34:00,75.3,72.0,29.89,NNW,331,0.0,1.0,88,0.00,,,0.00,weatherlink.com 1.10,2013-07-11 23:34:00,
2013-07-11 19:49:00,74.9,72.0,29.89,NNW,332,0.0,0.0,90,0.00,,,0.00,weatherlink.com 1.10,2013-07-11 23:49:00,
2013-07-11 20:04:00,74.1,71.0,29.90,NNW,332,0.0,1.0,89,0.00,,,0.00,weatherlink.com 1.10,2013-07-12 00:04:00,
2013-07-11 20:19:00,73.7,70.0,29.90,NW,314,0.0,1.0,89,0.00,,,0.00,weatherlink.com 1.10,2013-07-12 00:19:00,
2013-07-11 20:49:00,72.2,70.0,29.90,NW,314,0.0,1.0,92,0.00,,,0.00,weatherlink.com 1.10,2013-07-12 00:49:00,
2013-07-11 21:19:00,71.1,69.0,29.90,NW,307,0.0,1.0,94,0.00,,,0.00,weatherlink.com 1.10,2013-07-12 01:19:00,
2013-07-11 21:34:00,70.4,69.0,29.91,NW,307,0.0,1.0,95,0.00,,,0.00,weatherlink.com 1.10,2013-07-12 01:34:00,
2013-07-11 21:49:00,70.1,68.0,29.91,NW,307,2.0,2.0,93,0.00,,,0.00,weatherlink.com 1.10,2013-07-12 01:49:00,
2013-07-11 22:04:00,70.9,67.0,29.91,NW,322,2.0,3.0,88,0.00,,,0.00,weatherlink.com 1.10,2013-07-12 02:04:00,
2013-07-11 22:19:00,72.2,67.0,29.91,North,349,2.0,4.0,83,0.00,,,0.00,weatherlink.com 1.10,2013-07-12 02:19:00,
2013-07-11 22:34:00,72.8,67.0,29.92,NW,322,1.0,5.0,81,0.00,,,0.00,weatherlink.com 1.10,2013-07-12 02:34:00,
2013-07-11 22:49:00,72.7,66.0,29.91,NNW,336,2.0,3.0,79,0.00,,,0.00,weatherlink.com 1.10,2013-07-12 02:49:00,
2013-07-11 23:04:00,72.4,66.0,29.91,NW,309,2.0,4.0,79,0.00,,,0.00,weatherlink.com 1.10,2013-07-12 03:04:00,
2013-07-11 23:19:00,72.0,66.0,29.91,NW,322,2.0,3.0,80,0.00,,,0.00,weatherlink.com 1.10,2013-07-12 03:19:00,
2013-07-11 23:49:00,72.0,64.0,29.92,NW,318,1.0,2.0,77,0.00,,,0.00,weatherlink.com 1.10,2013-07-12 03:49:00,